Content
SEND FEEDBACK

Daily
Averages
Monthly
Summary
United States of America

CHICAGO, ILLINOIS


Home > North America > United States > Illinois
Elevation: 205 meters     Latitude: 41 59N     Longitude: 087 54W

WEATHER
 
SELECT A DAY
Number of Records: 197,851;   Date Range: 7/8/95 - 10/21/14
 
SHARE

PRINT THIS DATA

[ ← Previous Day ]
WEATHER ALMANAC - 7 APRIL, 2013
[ Next Day → ]
[ °F ]   °C
Weather ElementAverageHighLow
Temperature8.8 °C13.9 °C (1:52 pm)3.9 °C (8:52 pm)
Dewpoint2.9 °C9 °C (1:47 am)-0.6 °C (7:52 pm)
Humidity67.5 %82 % (2:20 am)45 % (1:52 pm)
Barometer1011.9 hPa1016.3 hPa (5:52 pm)1003.7 hPa (1:47 am)
Wind Speed15.6 km/h29.6 km/h (2:42 am)
Wind Gust40.7 km/h (2:42 am)
Weather ElementAverage
Visibility14.2 km
Wind DirectionSSW (194.2 °)

Weather ElementTotal
Precipitation---
Heating Degree Days9.4 (Base 18.3)
Averaged from 31 records on 7 April, 2013
WEATHER CONDITIONS BREAKOUT
WIND DIRECTION BREAKOUT
WEATHER BY HOUR - 7 APRIL, 2013
[ °F ]   °C
Local TimeTemperatureDewpointHumidityBarometerVisibilityWind DirectionWind SpeedGust SpeedPrecipitationEventsConditions
1:47 AM13 °C9 °C77 %1003.7 hPa16.1 kmWSW (250°)22.2 km/h29.6 km/hOvercast
1:52 AM12.2 °C8.9 °C80 %1003.7 hPa16.1 kmWest (260°)22.2 km/h35.2 km/hOvercast
2:20 AM12 °C9 °C82 %1004.1 hPa11.3 kmWest (270°)27.8 km/h38.9 km/hOvercast
2:42 AM11 °C8 °C82 %1004.4 hPa12.9 kmWest (280°)29.6 km/h40.7 km/hOvercast
2:52 AM10.6 °C7.2 °C80 %1004.7 hPa12.9 kmWest (270°)24.1 km/h35.2 km/hOvercast
3:52 AM10 °C6.1 °C77 %1005.8 hPa12.9 kmWest (280°)20.4 km/hOvercast
4:52 AM9.4 °C5 °C74 %1007.1 hPa12.9 kmWest (280°)22.2 km/h38.9 km/hOvercast
5:52 AM8.3 °C3.9 °C74 %1008.5 hPa14.5 kmWest (280°)22.2 km/hOvercast
6:52 AM7.2 °C3.3 °C76 %1010.2 hPa9.7 kmWest (280°)20.4 km/hHaze
7:43 AM7 °C2 °C71 %1011.5 hPa12.9 kmWest (270°)20.4 km/hScattered Clouds
7:52 AM7.2 °C1.7 °C68 %1011.9 hPa12.9 kmWNW (290°)20.4 km/h29.6 km/hPartly Cloudy
8:52 AM7.8 °C1.7 °C66 %1012.5 hPa12.9 kmWest (280°)16.7 km/hPartly Cloudy
9:28 AM9 °C2 °C62 %1012.9 hPa12.9 kmWNW (290°)16.7 km/hMostly Cloudy
9:52 AM8.9 °C2.2 °C63 %1012.9 hPa12.9 kmWest (280°)13 km/hMostly Cloudy
10:03 AM9 °C2 °C62 %1013.2 hPa12.9 kmWSW (240°)13 km/hScattered Clouds
10:52 AM10 °C2.2 °C59 %1014.2 hPa14.5 kmVariable7.4 km/hScattered Clouds
11:15 AM11 °C2 °C54 %1014.2 hPa14.5 kmWNW (300°)16.7 km/hMostly Cloudy
11:45 AM12 °C3 °C54 %1014.2 hPa14.5 kmWNW (290°)14.8 km/hPartly Cloudy
11:52 AM11.1 °C2.8 °C57 %1014.6 hPa14.5 kmWNW (300°)16.7 km/hPartly Cloudy
12:52 PM12.8 °C2.8 °C51 %1014.2 hPa16.1 kmVariable9.3 km/hClear
1:52 PM13.9 °C2.2 °C45 %1014.6 hPa16.1 kmWSW (250°)11.1 km/hClear
2:52 PM11.1 °C2.8 °C57 %1014.6 hPa14.5 kmENE (60°)18.5 km/hClear
3:52 PM9.4 °C1.7 °C59 %1014.9 hPa14.5 kmENE (70°)13 km/hClear
4:52 PM7.8 °C1.1 °C63 %1015.6 hPa14.5 kmEast (100°)14.8 km/hClear
5:52 PM6.1 °C0.6 °C68 %1016.3 hPa14.5 kmESE (110°)14.8 km/hClear
6:52 PM5.6 °C0 °C67 %1015.9 hPa16.1 kmEast (90°)11.1 km/hClear
7:52 PM4.4 °C-0.6 °C70 %1015.9 hPa16.1 kmEast (90°)5.6 km/hClear
8:52 PM3.9 °C-0.6 °C73 %1016.3 hPa16.1 kmEast (80°)7.4 km/hClear
9:52 PM3.9 °C-0.6 °C73 %1016.3 hPa16.1 kmEast (90°)7.4 km/hClear
10:52 PM3.9 °C-0.6 °C73 %1015.2 hPa16.1 kmCalmClear
11:52 PM3.9 °C0 °C76 %1014.2 hPa16.1 kmEast (90°)5.6 km/hClear
Hourly data recorded from KPWK, located 0 kilometers away from Chicago, Illinois







STORIES FROM OUR PARTNERS